Regional Weather Roundup
Issued by NWS Wakefield, VA

Home | Current Version | Previous Version | Graphics & Text | Print | Product List | Glossary On
Versions: 1 2 3 4 5 6 7 8 9 10 11 12 13 14 15 16 17 18 19 20 21 22 23 24 25 26 27
000
ASUS41 KAKQ 242115
RWRAKQ

REGIONAL WEATHER ROUNDUP
NATIONAL WEATHER SERVICE WAKEFIELD VA
400 PM EST SAT FEB 24 2018

Note: "fair" indicates few or no clouds below 12,000 feet with no
significant weather and/or obstructions to visibility. * = Denotes
station may not report precipitation (e.g., rain,snow,etc.),
thunder or fog.

VAZ042-051-052>054-056-242200-
NORTHERN VIRGINIA

CITY           SKY/WX    TMP DP  RH WIND       PRES   REMARKS
WASH NATIONAL  LGT RAIN  52  49  89 NE10      30.13R
DULLES         LGT RAIN  51  50  96 E7        30.11F
FORT BELVOIR   LGT RAIN  52  49  92 NE6       30.11S FOG
QUANTICO       CLOUDY    53  52  96 NE10      30.11F
FREDERICKSBRG* CLOUDY    56  55  99 NE9       30.09S FOG
STAFFORD*      CLOUDY    55  55 100 E9        30.13F FOG
WARRENTON      CLOUDY    52  49  89 NE5       30.09F
CULPEPER*      CLOUDY    53  51  94 NE3       30.10F
MANASSAS*      LGT RAIN  52  50  93 NE8       30.11F
LEESBURG*      LGT RAIN  46  46 100 NE5       30.13F
WINCHESTER     RAIN      46  46 100 N5        30.12R
FRONT ROYAL*   CLOUDY    48  48 100 N6        30.08S
LURAY*         CLOUDY    50  48  93 NE7       30.07S
$$

VAZ048-049-060>072-079>083-242200-
CENTRAL AND SOUTH CENTRAL VIRGINIA

CITY           SKY/WX    TMP DP  RH WIND       PRES   REMARKS
RICHMOND       PTSUNNY   75  59  57 W14       30.04F
CHESTERFIELD*  CLOUDY    75  60  59 W10         N/A
PETERSBURG*    CLOUDY    73  60  63 SW5       30.06F
HANOVER        CLOUDY    69  58  67 N5        30.07S
TAPPAHANNOCK*  FAIR      64  58  83 N7        30.09S
QUINTON*       CLOUDY    75  60  60 W10       30.04F
CHARLOTTSVILLE CLOUDY    57  52  83 NE8       30.07S
GORDONSVILLE*  CLOUDY    54  54 100 NE8       30.07F
ORANGE*        CLOUDY    52  52 100 CALM      30.08F FOG
LOUISA*        CLOUDY    59  56  88 NE8       30.09F
BUMPASS*       CLOUDY    61  58  91 NW5       30.06F
FARMVILLE*     CLOUDY    73  62  68 SW7       30.03F
CREWE*         CLOUDY    73  61  67 S5        30.04F
FORT PICKETT*  CLOUDY    73  59  60 SW9G24    30.05F
CHASE CITY*    FAIR      73  59  62 CALM      30.06F
CLARKSVILLE*   FAIR      73  61  64 S6        30.05F
SOUTH HILL*    CLOUDY    71  62  73 S7        30.13F
LAWRENCEVILLE* CLOUDY    72  59  63 SW8       30.07F
EMPORIA*       PTSUNNY   75  59  57 S7        30.08F
$$

VAZ088>098-242200-
SOUTHEAST VIRGINIA

CITY           SKY/WX    TMP DP  RH WIND       PRES   REMARKS
NORFOLK        PTSUNNY   77  60  55 SW15G21   30.06S
VIRGINIA BEACH FAIR      77  58  51 SW20G26   30.06F
NORFOLK NAVAL  PTSUNNY   76  59  55 SW14      30.08S
WEST POINT*    CLOUDY    73  60  63 W6        30.06F
SALUDA*        CLOUDY    62  56  83 E8        30.06S
NEWPORT NEWS   PTSUNNY   75  59  57 SW12      30.06F
LANGLEY AFB    FAIR      75  61  62 SW14G23   30.06F
FORT EUSTIS    FAIR      74  61  62 SW7       30.04F
WILLIAMSBURG*  FAIR      79  63  57 SW9G16    30.06F
HR EXEC AP*    MOCLDY    76  60  57 SW13      30.08S
FRANKLIN*      FAIR      76  59  56 SW9       30.08F
US460-WAKEFLD  FAIR      76  61  59 VRB6      30.06F
$$

VAZ020-022-025-037-045-242200-
WEST CENTRAL AND SOUTHWEST VIRGINIA

CITY           SKY/WX    TMP DP  RH WIND       PRES   REMARKS
STAUNTON*      CLOUDY    62  58  86 NE5       30.05F
WAYNESBORO*    CLOUDY    65  58  78 CALM      30.04S
HOT SPRINGS VA PTSUNNY   61  52  71 W9        30.09F
LYNCHBURG      FAIR      70  58  65 S9G24     30.04F
DANVILLE       PTSUNNY   76  59  55 SW17      30.03F
SOUTH BOSTON*  FAIR      74  58  56 S5        30.04F
MARTINSVILLE   FAIR      76  58  51 SW8G16    30.04F
ROANOKE        PTSUNNY   71  57  61 E3        30.03F
BLACKSBURG     CLOUDY    69  58  68 S7        30.07F
DUBLIN*        CLOUDY    71  58  63 S10       30.05F
MARION*        CLOUDY    67  57  72 CALM      30.08S
HILLSVILLE*    PTSUNNY   67  57  71 S6G17     30.06F
RICHLANDS*     CLOUDY    66  55  68 SW5       30.06F
WISE*          CLOUDY    64  55  72 SW15G24   30.07R
ABINGDON*      LGT RAIN  71  59  66 NW6       30.04S
$$

MDZ021>025-VAZ099-100-242200-
SOUTHERN MARYLAND AND THE DELMARVA PENINSULA

CITY           SKY/WX    TMP DP  RH WIND       PRES   REMARKS
PATUXENT RIVER FOG       50  50 100 N8        30.11F VSB 1
BAY BRIDGE APT LGT RAIN  48  48 100 N5        30.14R FOG
LEONARDTOWN    CLOUDY    50  46  87 NE3       30.12F VSB 3/4
DOVER          LGT RAIN  51  48  91 N7        30.13S
GEORGETOWN     CLOUDY    52  49  89 NE9       30.13R FOG
EASTON         RAIN      54  50  87 E7        30.15F
CAMBRIDGE      CLOUDY    54  54 100 NE5       30.11F FOG
SALISBURY      CLOUDY    56  54  93 NE12      30.12R FOG
OCEAN CITY     FOG       50  50 100 N3        30.13R VSB 1/2
WALLOPS ISLAND FOG      N/A N/A N/A NE8       30.10S VSB 3/4
ACCOMACK*      CLOUDY    59  55  85 NE8       30.07S
$$

NCZ012>017-030>032-242200-
NORTH CENTRAL AND EASTERN NORTH CAROLINA

CITY           SKY/WX    TMP DP  RH WIND       PRES   REMARKS
ROANOKE RAPIDS FAIR      75  61  60 SW13      30.08F
RALEIGH        PTSUNNY   77  60  55 S12       30.09F
ELIZABETH CITY FAIR      76  62  62 SW13      30.10F
AHOSKIE*       PTSUNNY   75  60  60 SW5       30.09F
EDENTON*       FAIR      75  61  61 SW8       30.11F
CURRITUCK*     FAIR      71  56  58 SW14G22   30.10S
KILL DEVIL HLS FAIR      71  59  64 CALM      30.10F
MANTEO         FAIR      72  58  61 W10       30.11F
CAPE HATTERAS  FAIR      69  63  81 SW10      30.15F
TARBORO*       NOT AVBL
GOLDSBORO      FAIR      78  60  53 S10       30.09F
WASHINGTON     FAIR      78  59  51 SW9       30.11F
GREENVILLE     FAIR      79  59  50 W13       30.13S
NEW BERN       FAIR      78  60  53 SW6       30.12F
WILMINGTON     FAIR      77  61  57 SW15      30.13F
$$

VAZ048-242200-
ELSEWHERE

CITY           SKY/WX    TMP DP  RH WIND       PRES   REMARKS
HARRISBURG PA  LGT RAIN  47  44  90 SE5       30.14F FOG
BALTIMORE      LGT RAIN  49  47  93 E6G18     30.14R
ANNAPOLIS      LGT RAIN  50  49  96 N8        30.14R
ANDREWS AFB    LGT RAIN  50  50 100 NE8       30.11S
PHILADELPHIA   LGT RAIN  50  46  86 CALM      30.17R FOG
HENDERSON NC   FAIR      73  57  57 S13G18    30.07F
GREENSBORO     PTSUNNY   76  59  55 SW15G25   30.05F
ROCKY MOUNT    FAIR      75  59  57 S10G17    30.10F
$$

VAZ100-242200-
MARINE

STATION/POSITION TIME  TEMP    WIND        PRES    WAVE   SWELL
                       AIR SEA DIR/SP/G            HT/PER HT/PER
                 (UTC) (F)     (DEG/KT/KT) (MB)    (FT/S) (FT/S)
BRANDYWINE LGT   2036   46      CALM  /  2 1020.9S
CAPE MAY NJ      2036   48 44  100/  6/  7 1020.1F
LEWES DE         2036   45 44   70/  6/  7 1020.2F
15NM E FENWICK I 2050   45 44   20/  8/  8 1020.6R   2/ 7   2/ 7
OCEAN-CITY-INLET 2036   47 43   30/  3/  4 1020.2R
WACHAPREAGUE VA  2036   53 53   40/ 10/ 11 1018.5F
THOMAS POINT MD  2100   46 43   10/ 10/ 10   N/A
GOOSES REEF MD   2100   44 42   30/  6/  8 1021.2    1/ 2
COVE POINT MD    2036   45      10/ 10/ 13 1020.5F
SOLOMONS ISLAND  2036   48 44  360/  9/ 12 1019.3F
BISHOPS HEAD MD  2036   55 51   10/  6/  8 1019.7R
PINEY POINT MD   2042           50/  6/  7   N/A
POTOMAC MD       2100   50 45  190/ 12/ 14 1020.3
CAMBRIDGE MD     2036   52 48              1020.6F
LEWISETTA VA     2036   52 50   30/  5/  8 1019.1F
RAPPAHANNOCK LGT 2048          340/ 11/ 16 1018.6F
YORK RVR RNG VA  2048   68     260/ 13/ 17 1018.2F
YORKTOWN VA      2048   74 46  230/  9/ 14 1017.4F
DOMINION TERM VA 2048   67     250/ 10/ 13 1018.5S
KIPTOPEKE VA     2048      47  240/  7/ 10   N/A
CAPE HENRY VA    2048   76     240/  8/ 14   N/A
WILLOUBY STN VA  2048   68     240/ 12/ 14 1018.2S
S CRANEY ISL VA  2048   75     250/ 12/ 19 1018.1S
CAPE HENRY BUOY  2100      45                N/A     2/ 9   2/11
CAPE CHARLES BUO 2051      46                N/A     2/ 9
64NM E OF VA BCH 2050   54 51  210/  6/  8 1020.2F   3/ 9   3/ 9
DUCK PIER NC     2048   69 47  250/ 10/ 12 1019.1F
44100 DUCK FRF   2045      50                N/A     3/ 8   2/11
44056 DUCK FRF   2030      49                N/A     2/ 8   2/11
OREGON INLET NC  2042   62 59  190/ 14/ 16 1020.0F
HATTERAS NC      2048   68 61  220/ 11/ 16 1020.7F
DIAMOND SHLS NC  2050   72 73  240/ 19/ 23 1021.4F   4/ 9   3/ 9
CAPE LOOKOUT NC  2100          210/ 10/ 14 1021.3F
$$




USA.gov is the U.S. government's official web portal to all federal, state and local government web resources and services.